Year,Month,Day,Hour,Minute,Value (Times are PST for barometer in hPa)
2021,10,24,00,00,997.97
2021,10,24,00,01,997.90
2021,10,24,00,02,997.83
2021,10,24,00,03,997.83
2021,10,24,00,04,997.80
2021,10,24,00,05,997.80
2021,10,24,00,06,997.77
2021,10,24,00,07,997.73
2021,10,24,00,08,997.71
2021,10,24,00,09,997.83
2021,10,24,00,10,997.73
2021,10,24,00,11,997.77
2021,10,24,00,12,997.70
2021,10,24,00,13,997.70
2021,10,24,00,14,997.66
2021,10,24,00,15,997.66
2021,10,24,00,16,997.56
2021,10,24,00,17,997.60
2021,10,24,00,18,997.63
2021,10,24,00,19,997.53
2021,10,24,00,20,997.50
2021,10,24,00,21,997.46
2021,10,24,00,22,997.39
2021,10,24,00,23,997.43
2021,10,24,00,24,997.26
2021,10,24,00,25,997.26
2021,10,24,00,26,997.33
2021,10,24,00,27,997.36
2021,10,24,00,28,997.26
2021,10,24,00,29,997.33
2021,10,24,00,30,997.22
2021,10,24,00,31,997.22
2021,10,24,00,32,997.19
2021,10,24,00,33,997.26
2021,10,24,00,34,997.22
2021,10,24,00,35,997.26
2021,10,24,00,36,997.16
2021,10,24,00,37,997.12
2021,10,24,00,38,997.12
2021,10,24,00,39,997.12
2021,10,24,00,40,997.12
2021,10,24,00,41,997.12
2021,10,24,00,42,997.05
2021,10,24,00,43,997.02
2021,10,24,00,44,997.02
2021,10,24,00,45,996.95
2021,10,24,00,46,996.92
2021,10,24,00,47,996.95
2021,10,24,00,48,996.85
2021,10,24,00,49,996.75
2021,10,24,00,50,996.78
2021,10,24,00,51,996.78
2021,10,24,00,52,996.78
2021,10,24,00,53,996.75
2021,10,24,00,54,996.72
2021,10,24,00,55,996.65
2021,10,24,00,56,996.68
2021,10,24,00,57,996.78
2021,10,24,00,58,996.72
2021,10,24,00,59,996.72
2021,10,24,01,00,996.68
2021,10,24,01,01,996.65
2021,10,24,01,02,996.65
2021,10,24,01,03,996.72
2021,10,24,01,04,996.65
2021,10,24,01,05,996.68
2021,10,24,01,06,996.65
2021,10,24,01,07,996.58
2021,10,24,01,08,996.48
2021,10,24,01,09,996.45
2021,10,24,01,10,996.48
2021,10,24,01,11,996.45
2021,10,24,01,12,996.45
2021,10,24,01,13,996.38
2021,10,24,01,14,996.48
2021,10,24,01,15,996.38
2021,10,24,01,16,996.34
2021,10,24,01,17,996.28
2021,10,24,01,18,996.41
2021,10,24,01,19,996.31
2021,10,24,01,20,996.28
2021,10,24,01,21,996.24
2021,10,24,01,22,996.31
2021,10,24,01,23,996.21
2021,10,24,01,24,996.08
2021,10,24,01,25,996.31
2021,10,24,01,26,996.28
2021,10,24,01,27,996.14
2021,10,24,01,28,996.14
2021,10,24,01,29,996.17
2021,10,24,01,30,996.24
2021,10,24,01,31,996.17
2021,10,24,01,32,996.24
2021,10,24,01,33,996.21
2021,10,24,01,34,996.14
2021,10,24,01,35,996.20
2021,10,24,01,36,996.04
2021,10,24,01,37,996.11
2021,10,24,01,38,996.14
2021,10,24,01,39,996.07
2021,10,24,01,40,996.07
2021,10,24,01,41,995.97
2021,10,24,01,42,996.04
2021,10,24,01,43,996.01
2021,10,24,01,44,996.04
2021,10,24,01,45,996.04
2021,10,24,01,46,996.04
2021,10,24,01,47,996.04
2021,10,24,01,48,995.97
2021,10,24,01,49,995.97
2021,10,24,01,50,995.96
2021,10,24,01,51,995.80
2021,10,24,01,52,995.77
2021,10,24,01,53,995.67
2021,10,24,01,54,995.67
2021,10,24,01,55,995.63
2021,10,24,01,56,995.60
2021,10,24,01,57,995.50
2021,10,24,01,58,995.53
2021,10,24,01,59,995.50
2021,10,24,02,00,995.43
2021,10,24,02,01,995.46
2021,10,24,02,02,995.43
2021,10,24,02,03,995.43
2021,10,24,02,04,995.49
2021,10,24,02,05,995.36
2021,10,24,02,06,995.40
2021,10,24,02,07,995.36
2021,10,24,02,08,995.40
2021,10,24,02,09,995.40
2021,10,24,02,10,995.36
2021,10,24,02,11,995.36
2021,10,24,02,12,995.29
2021,10,24,02,13,995.26
2021,10,24,02,14,995.29
2021,10,24,02,15,995.26
2021,10,24,02,16,995.29
2021,10,24,02,17,995.39
2021,10,24,02,18,995.23
2021,10,24,02,19,995.29
2021,10,24,02,20,995.33
2021,10,24,02,21,995.26
2021,10,24,02,22,995.29
2021,10,24,02,23,995.26
2021,10,24,02,24,995.19
2021,10,24,02,25,995.16
2021,10,24,02,26,995.16
2021,10,24,02,27,995.12
2021,10,24,02,28,995.09
2021,10,24,02,29,995.06
2021,10,24,02,30,995.02
2021,10,24,02,31,995.06
2021,10,24,02,32,994.96
2021,10,24,02,33,994.96
2021,10,24,02,34,995.06
2021,10,24,02,35,994.96
2021,10,24,02,36,994.89
2021,10,24,02,37,994.82
2021,10,24,02,38,994.79
2021,10,24,02,39,994.79
2021,10,24,02,40,994.79
2021,10,24,02,41,994.79
2021,10,24,02,42,994.79
2021,10,24,02,43,994.79
2021,10,24,02,44,994.62
2021,10,24,02,45,994.68
2021,10,24,02,46,994.65
2021,10,24,02,47,994.55
2021,10,24,02,48,994.55
2021,10,24,02,49,994.55
2021,10,24,02,50,994.65
2021,10,24,02,51,994.45
2021,10,24,02,52,994.48
2021,10,24,02,53,994.48
2021,10,24,02,54,994.52
2021,10,24,02,55,994.52
2021,10,24,02,56,994.48
2021,10,24,02,57,994.45
2021,10,24,02,58,994.44
2021,10,24,02,59,994.28
2021,10,24,03,00,994.35
2021,10,24,03,01,994.35
2021,10,24,03,02,994.35
2021,10,24,03,03,994.28
2021,10,24,03,04,994.21
2021,10,24,03,05,994.21
2021,10,24,03,06,994.18
2021,10,24,03,07,994.21
2021,10,24,03,08,994.11
2021,10,24,03,09,994.11
2021,10,24,03,10,994.07
2021,10,24,03,11,994.11
2021,10,24,03,12,994.07
2021,10,24,03,13,994.01
2021,10,24,03,14,993.94
2021,10,24,03,15,993.87
2021,10,24,03,16,993.74
2021,10,24,03,17,993.74
2021,10,24,03,18,993.80
2021,10,24,03,19,993.70
2021,10,24,03,20,993.70
2021,10,24,03,21,993.57
2021,10,24,03,22,993.63
2021,10,24,03,23,993.70
2021,10,24,03,24,993.80
2021,10,24,03,25,993.77
2021,10,24,03,26,993.70
2021,10,24,03,27,993.63
2021,10,24,03,28,993.66
2021,10,24,03,29,993.47
2021,10,24,03,30,993.47
2021,10,24,03,31,993.47
2021,10,24,03,32,993.36
2021,10,24,03,33,993.40
2021,10,24,03,34,993.36
2021,10,24,03,35,993.23
2021,10,24,03,36,993.19
2021,10,24,03,37,993.16
2021,10,24,03,38,993.13
2021,10,24,03,39,993.16
2021,10,24,03,40,993.09
2021,10,24,03,41,993.13
2021,10,24,03,42,993.16
2021,10,24,03,43,993.13
2021,10,24,03,44,993.09
2021,10,24,03,45,993.03
2021,10,24,03,46,992.96
2021,10,24,03,47,992.99
2021,10,24,03,48,992.96
2021,10,24,03,49,992.86
2021,10,24,03,50,992.82
2021,10,24,03,51,992.86
2021,10,24,03,52,992.89
2021,10,24,03,53,992.69
2021,10,24,03,54,992.72
2021,10,24,03,55,992.72
2021,10,24,03,56,992.65
2021,10,24,03,57,992.72
2021,10,24,03,58,992.72
2021,10,24,03,59,992.65
2021,10,24,04,00,992.71
2021,10,24,04,01,992.52
2021,10,24,04,02,992.55
2021,10,24,04,03,992.52
2021,10,24,04,04,992.45
2021,10,24,04,05,992.48
2021,10,24,04,06,992.42
2021,10,24,04,07,992.38
2021,10,24,04,08,992.31
2021,10,24,04,09,992.35
2021,10,24,04,10,992.35
2021,10,24,04,11,992.35
2021,10,24,04,12,992.35
2021,10,24,04,13,992.38
2021,10,24,04,14,992.31
2021,10,24,04,15,992.35
2021,10,24,04,16,992.28
2021,10,24,04,17,992.25
2021,10,24,04,18,992.11
2021,10,24,04,19,992.18
2021,10,24,04,20,992.11
2021,10,24,04,21,991.98
2021,10,24,04,22,991.87
2021,10,24,04,23,991.81
2021,10,24,04,24,991.74
2021,10,24,04,25,991.81
2021,10,24,04,26,991.87
2021,10,24,04,27,991.84
2021,10,24,04,28,991.74
2021,10,24,04,29,991.67
2021,10,24,04,30,991.60
2021,10,24,04,31,991.60
2021,10,24,04,32,991.50
2021,10,24,04,33,991.43
2021,10,24,04,34,991.40
2021,10,24,04,35,991.37
2021,10,24,04,36,991.26
2021,10,24,04,37,991.30
2021,10,24,04,38,991.30
2021,10,24,04,39,991.23
2021,10,24,04,40,991.13
2021,10,24,04,41,991.06
2021,10,24,04,42,991.03
2021,10,24,04,43,991.08
2021,10,24,04,44,990.93
2021,10,24,04,45,990.96
2021,10,24,04,46,990.92
2021,10,24,04,47,990.72
2021,10,24,04,48,990.65
2021,10,24,04,49,990.65
2021,10,24,04,50,990.65
2021,10,24,04,51,990.72
2021,10,24,04,52,990.72
2021,10,24,04,53,990.82
2021,10,24,04,54,990.79
2021,10,24,04,55,990.93
2021,10,24,04,56,990.96
2021,10,24,04,57,990.99
2021,10,24,04,58,990.89
2021,10,24,04,59,990.89
2021,10,24,05,00,990.79
2021,10,24,05,01,990.72
2021,10,24,05,02,990.79
2021,10,24,05,03,990.72
2021,10,24,05,04,990.65
2021,10,24,05,05,990.55
2021,10,24,05,06,990.62
2021,10,24,05,07,990.52
2021,10,24,05,08,990.45
2021,10,24,05,09,990.55
2021,10,24,05,10,990.55
2021,10,24,05,11,990.59
2021,10,24,05,12,990.59
2021,10,24,05,13,990.45
2021,10,24,05,14,990.45
2021,10,24,05,15,990.42
2021,10,24,05,16,990.45
2021,10,24,05,17,990.38
2021,10,24,05,18,990.45
2021,10,24,05,19,990.35
2021,10,24,05,20,990.28
2021,10,24,05,21,990.28
2021,10,24,05,22,990.21
2021,10,24,05,23,990.11
2021,10,24,05,24,990.10
2021,10,24,05,25,989.94
2021,10,24,05,26,989.88
2021,10,24,05,27,989.74
2021,10,24,05,28,989.67
2021,10,24,05,29,989.67
2021,10,24,05,30,989.64
2021,10,24,05,31,989.57
2021,10,24,05,32,989.64
2021,10,24,05,33,989.54
2021,10,24,05,34,989.60
2021,10,24,05,35,989.47
2021,10,24,05,36,989.40
2021,10,24,05,37,989.33
2021,10,24,05,38,989.33
2021,10,24,05,39,989.23
2021,10,24,05,40,989.20
2021,10,24,05,41,989.20
2021,10,24,05,42,989.23
2021,10,24,05,43,989.27
2021,10,24,05,44,989.23
2021,10,24,05,45,989.23
2021,10,24,05,46,989.20
2021,10,24,05,47,989.13
2021,10,24,05,48,989.16
2021,10,24,05,49,989.16
2021,10,24,05,50,989.16
2021,10,24,05,51,989.13
2021,10,24,05,52,989.16
2021,10,24,05,53,989.03
2021,10,24,05,54,988.97
2021,10,24,05,55,989.15
2021,10,24,05,56,989.00
2021,10,24,05,57,989.03
2021,10,24,05,58,988.93
2021,10,24,05,59,988.79
2021,10,24,06,00,988.72
2021,10,24,06,01,988.61
2021,10,24,06,02,988.49
2021,10,24,06,03,988.49
2021,10,24,06,04,988.39
2021,10,24,06,05,988.32
2021,10,24,06,06,988.28
2021,10,24,06,07,988.15
2021,10,24,06,08,988.15
2021,10,24,06,09,988.15
2021,10,24,06,10,988.05
2021,10,24,06,11,988.01
2021,10,24,06,12,988.01
2021,10,24,06,13,988.08
2021,10,24,06,14,988.01
2021,10,24,06,15,987.98
2021,10,24,06,16,987.88
2021,10,24,06,17,987.88
2021,10,24,06,18,987.81
2021,10,24,06,19,987.74
2021,10,24,06,20,987.67
2021,10,24,06,21,987.67
2021,10,24,06,22,987.57
2021,10,24,06,23,987.54
2021,10,24,06,24,987.47
2021,10,24,06,25,987.47
2021,10,24,06,26,987.37
2021,10,24,06,27,987.20
2021,10,24,06,28,987.13
2021,10,24,06,29,987.03
2021,10,24,06,30,986.96
2021,10,24,06,31,987.00
2021,10,24,06,32,986.96
2021,10,24,06,33,986.90
2021,10,24,06,34,986.96
2021,10,24,06,35,986.93
2021,10,24,06,36,986.86
2021,10,24,06,37,986.90
2021,10,24,06,38,986.96
2021,10,24,06,39,986.90
2021,10,24,06,40,986.83
2021,10,24,06,41,986.76
2021,10,24,06,42,986.76
2021,10,24,06,43,986.76
2021,10,24,06,44,986.70
2021,10,24,06,45,986.86
2021,10,24,06,46,986.83
2021,10,24,06,47,986.79
2021,10,24,06,48,986.69
2021,10,24,06,49,986.69
2021,10,24,06,50,986.66
2021,10,24,06,51,986.62
2021,10,24,06,52,986.59
2021,10,24,06,53,986.52
2021,10,24,06,54,986.56
2021,10,24,06,55,986.42
2021,10,24,06,56,986.46
2021,10,24,06,57,986.52
2021,10,24,06,58,986.52
2021,10,24,06,59,986.42
2021,10,24,07,00,986.29
2021,10,24,07,01,986.35
2021,10,24,07,02,986.25
2021,10,24,07,03,986.08
2021,10,24,07,04,985.98
2021,10,24,07,05,985.95
2021,10,24,07,06,985.91
2021,10,24,07,07,985.85
2021,10,24,07,08,985.85
2021,10,24,07,09,985.78
2021,10,24,07,10,985.91
2021,10,24,07,11,985.98
2021,10,24,07,12,985.95
2021,10,24,07,13,985.91
2021,10,24,07,14,985.91
2021,10,24,07,15,985.81
2021,10,24,07,16,985.81
2021,10,24,07,17,985.74
2021,10,24,07,18,985.81
2021,10,24,07,19,985.81
2021,10,24,07,20,985.78
2021,10,24,07,21,985.81
2021,10,24,07,22,985.91
2021,10,24,07,23,985.91
2021,10,24,07,24,985.91
2021,10,24,07,25,985.95
2021,10,24,07,26,985.91
2021,10,24,07,27,985.91
2021,10,24,07,28,985.85
2021,10,24,07,29,985.84
2021,10,24,07,30,985.71
2021,10,24,07,31,985.57
2021,10,24,07,32,985.57
2021,10,24,07,33,985.51
2021,10,24,07,34,985.44
2021,10,24,07,35,985.37
2021,10,24,07,36,985.30
2021,10,24,07,37,985.27
2021,10,24,07,38,985.23
2021,10,24,07,39,985.10
2021,10,24,07,40,985.13
2021,10,24,07,41,985.07
2021,10,24,07,42,985.03
2021,10,24,07,43,985.03
2021,10,24,07,44,984.90
2021,10,24,07,45,984.83
2021,10,24,07,46,984.80
2021,10,24,07,47,984.86
2021,10,24,07,48,984.83
2021,10,24,07,49,984.80
2021,10,24,07,50,984.80
2021,10,24,07,51,984.83
2021,10,24,07,52,984.83
2021,10,24,07,53,984.86
2021,10,24,07,54,984.90
2021,10,24,07,55,984.76
2021,10,24,07,56,984.80
2021,10,24,07,57,984.93
2021,10,24,07,58,984.83
2021,10,24,07,59,984.76
2021,10,24,08,00,984.69
2021,10,24,08,01,984.66
2021,10,24,08,02,984.56
2021,10,24,08,03,984.59
2021,10,24,08,04,984.53
2021,10,24,08,05,984.46
2021,10,24,08,06,984.49
2021,10,24,08,07,984.42
2021,10,24,08,08,984.36
2021,10,24,08,09,984.39
2021,10,24,08,10,984.39
2021,10,24,08,11,984.39
2021,10,24,08,12,984.39
2021,10,24,08,13,984.39
2021,10,24,08,14,984.32
2021,10,24,08,15,984.15
2021,10,24,08,16,984.25
2021,10,24,08,17,984.19
2021,10,24,08,18,984.22
2021,10,24,08,19,984.22
2021,10,24,08,20,984.25
2021,10,24,08,21,984.15
2021,10,24,08,22,984.25
2021,10,24,08,23,984.15
2021,10,24,08,24,984.08
2021,10,24,08,25,984.05
2021,10,24,08,26,984.02
2021,10,24,08,27,984.08
2021,10,24,08,28,984.05
2021,10,24,08,29,984.08
2021,10,24,08,30,984.02
2021,10,24,08,31,984.02
2021,10,24,08,32,983.98
2021,10,24,08,33,983.92
2021,10,24,08,34,983.98
2021,10,24,08,35,984.05
2021,10,24,08,36,983.92
2021,10,24,08,37,984.02
2021,10,24,08,38,984.05
2021,10,24,08,39,983.98
2021,10,24,08,40,984.02
2021,10,24,08,41,983.98
2021,10,24,08,42,984.02
2021,10,24,08,43,983.88
2021,10,24,08,44,983.92
2021,10,24,08,45,983.98
2021,10,24,08,46,983.95
2021,10,24,08,47,983.98
2021,10,24,08,48,984.05
2021,10,24,08,49,984.08
2021,10,24,08,50,984.05
2021,10,24,08,51,983.95
2021,10,24,08,52,983.81
2021,10,24,08,53,983.78
2021,10,24,08,54,983.68
2021,10,24,08,55,983.71
2021,10,24,08,56,983.71
2021,10,24,08,57,983.68
2021,10,24,08,58,983.68
2021,10,24,08,59,983.68
2021,10,24,09,00,983.68
2021,10,24,09,01,983.64
2021,10,24,09,02,983.64
2021,10,24,09,03,983.70
2021,10,24,09,04,983.54
2021,10,24,09,05,983.52
2021,10,24,09,06,983.64
2021,10,24,09,07,983.64
2021,10,24,09,08,983.64
2021,10,24,09,09,983.68
2021,10,24,09,10,983.75
2021,10,24,09,11,983.68
2021,10,24,09,12,983.61
2021,10,24,09,13,983.58
2021,10,24,09,14,983.65
2021,10,24,09,15,983.78
2021,10,24,09,16,983.75
2021,10,24,09,17,983.81
2021,10,24,09,18,983.81
2021,10,24,09,19,983.81
2021,10,24,09,20,983.68
2021,10,24,09,21,983.71
2021,10,24,09,22,983.68
2021,10,24,09,23,983.58
2021,10,24,09,24,983.51
2021,10,24,09,25,983.44
2021,10,24,09,26,983.48
2021,10,24,09,27,983.51
2021,10,24,09,28,983.58
2021,10,24,09,29,983.58
2021,10,24,09,30,983.54
2021,10,24,09,31,983.64
2021,10,24,09,32,983.68
2021,10,24,09,33,983.75
2021,10,24,09,34,983.68
2021,10,24,09,35,983.81
2021,10,24,09,36,983.78
2021,10,24,09,37,983.75
2021,10,24,09,38,983.71
2021,10,24,09,39,983.75
2021,10,24,09,40,983.64
2021,10,24,09,41,983.71
2021,10,24,09,42,983.71
2021,10,24,09,43,983.75
2021,10,24,09,44,983.78
2021,10,24,09,45,983.78
2021,10,24,09,46,983.68
2021,10,24,09,47,983.68
2021,10,24,09,48,983.61
2021,10,24,09,49,983.64
2021,10,24,09,50,983.64
2021,10,24,09,51,983.71
2021,10,24,09,52,983.71
2021,10,24,09,53,983.64
2021,10,24,09,54,983.54
2021,10,24,09,55,983.51
2021,10,24,09,56,983.41
2021,10,24,09,57,983.31
2021,10,24,09,58,983.23
2021,10,24,09,59,983.04
2021,10,24,10,00,982.97
2021,10,24,10,01,982.87
2021,10,24,10,02,982.87
2021,10,24,10,03,982.76
2021,10,24,10,04,982.79
2021,10,24,10,05,982.63
2021,10,24,10,06,982.46
2021,10,24,10,07,982.22
2021,10,24,10,08,982.26
2021,10,24,10,09,982.29
2021,10,24,10,10,982.29
2021,10,24,10,11,982.22
2021,10,24,10,12,982.22
2021,10,24,10,13,982.19
2021,10,24,10,14,982.18
2021,10,24,10,15,982.02
2021,10,24,10,16,981.92
2021,10,24,10,17,981.84
2021,10,24,10,18,981.68
2021,10,24,10,19,981.58
2021,10,24,10,20,981.68
2021,10,24,10,21,981.78
2021,10,24,10,22,981.85
2021,10,24,10,23,982.05
2021,10,24,10,24,982.19
2021,10,24,10,25,982.26
2021,10,24,10,26,982.19
2021,10,24,10,27,982.26
2021,10,24,10,28,982.29
2021,10,24,10,29,982.36
2021,10,24,10,30,982.29
2021,10,24,10,31,982.29
2021,10,24,10,32,982.22
2021,10,24,10,33,982.12
2021,10,24,10,34,982.02
2021,10,24,10,35,981.92
2021,10,24,10,36,981.92
2021,10,24,10,37,981.92
2021,10,24,10,38,981.95
2021,10,24,10,39,981.82
2021,10,24,10,40,981.75
2021,10,24,10,41,981.61
2021,10,24,10,42,981.58
2021,10,24,10,43,981.58
2021,10,24,10,44,981.58
2021,10,24,10,45,981.55
2021,10,24,10,46,981.44
2021,10,24,10,47,981.55
2021,10,24,10,48,981.59
2021,10,24,10,49,981.71
2021,10,24,10,50,981.68
2021,10,24,10,51,981.61
2021,10,24,10,52,981.61
2021,10,24,10,53,981.58
2021,10,24,10,54,981.44
2021,10,24,10,55,981.44
2021,10,24,10,56,981.61
2021,10,24,10,57,981.58
2021,10,24,10,58,981.68
2021,10,24,10,59,981.75
2021,10,24,11,00,981.75
2021,10,24,11,01,981.75
2021,10,24,11,02,981.82
2021,10,24,11,03,981.78
2021,10,24,11,04,981.85
2021,10,24,11,05,981.85
2021,10,24,11,06,981.78
2021,10,24,11,07,981.78
2021,10,24,11,08,981.71
2021,10,24,11,09,981.68
2021,10,24,11,10,981.58
2021,10,24,11,11,981.58
2021,10,24,11,12,981.58
2021,10,24,11,13,981.51
2021,10,24,11,14,981.41
2021,10,24,11,15,981.41
2021,10,24,11,16,981.48
2021,10,24,11,17,981.68
2021,10,24,11,18,981.95
2021,10,24,11,19,981.92
2021,10,24,11,20,981.92
2021,10,24,11,21,982.02
2021,10,24,11,22,981.95
2021,10,24,11,23,981.95
2021,10,24,11,24,982.05
2021,10,24,11,25,982.15
2021,10,24,11,26,982.19
2021,10,24,11,27,982.15
2021,10,24,11,28,982.15
2021,10,24,11,29,982.19
2021,10,24,11,30,982.09
2021,10,24,11,31,981.99
2021,10,24,11,32,982.02
2021,10,24,11,33,981.88
2021,10,24,11,34,981.88
2021,10,24,11,35,981.89
2021,10,24,11,36,982.02
2021,10,24,11,37,982.05
2021,10,24,11,38,982.12
2021,10,24,11,39,982.05
2021,10,24,11,40,982.12
2021,10,24,11,41,982.02
2021,10,24,11,42,982.19
2021,10,24,11,43,982.15
2021,10,24,11,44,982.26
2021,10,24,11,45,982.32
2021,10,24,11,46,982.19
2021,10,24,11,47,982.15
2021,10,24,11,48,982.02
2021,10,24,11,49,981.92
2021,10,24,11,50,981.82
2021,10,24,11,51,981.82
2021,10,24,11,52,981.82
2021,10,24,11,53,981.95
2021,10,24,11,54,981.85
2021,10,24,11,55,981.92
2021,10,24,11,56,981.85
2021,10,24,11,57,981.78
2021,10,24,11,58,981.82
2021,10,24,11,59,981.78
2021,10,24,12,00,981.68
2021,10,24,12,01,981.75
2021,10,24,12,02,981.75
2021,10,24,12,03,981.75
2021,10,24,12,04,981.75
2021,10,24,12,05,981.68
2021,10,24,12,06,981.58
2021,10,24,12,07,981.58
2021,10,24,12,08,981.65
2021,10,24,12,09,981.58
2021,10,24,12,10,981.58
2021,10,24,12,11,981.55
2021,10,24,12,12,981.58
2021,10,24,12,13,981.43
2021,10,24,12,14,981.27
2021,10,24,12,15,981.27
2021,10,24,12,16,981.14
2021,10,24,12,17,981.17
2021,10,24,12,18,981.31
2021,10,24,12,19,981.31
2021,10,24,12,20,981.44
2021,10,24,12,21,981.21
2021,10,24,12,22,981.21
2021,10,24,12,23,981.24
2021,10,24,12,24,981.27
2021,10,24,12,25,981.21
2021,10,24,12,26,981.17
2021,10,24,12,27,981.17
2021,10,24,12,28,981.17
2021,10,24,12,29,981.21
2021,10,24,12,30,981.07
2021,10,24,12,31,981.10
2021,10,24,12,32,981.04
2021,10,24,12,33,981.07
2021,10,24,12,34,981.07
2021,10,24,12,35,981.14
2021,10,24,12,36,981.14
2021,10,24,12,37,981.10
2021,10,24,12,38,981.07
2021,10,24,12,39,981.07
2021,10,24,12,40,981.04
2021,10,24,12,41,981.07
2021,10,24,12,42,981.00
2021,10,24,12,43,981.04
2021,10,24,12,44,981.07
2021,10,24,12,45,981.04
2021,10,24,12,46,981.07
2021,10,24,12,47,981.04
2021,10,24,12,48,981.17
2021,10,24,12,49,981.14
2021,10,24,12,50,981.14
2021,10,24,12,51,981.07
2021,10,24,12,52,981.10
2021,10,24,12,53,981.17
2021,10,24,12,54,981.27
2021,10,24,12,55,981.21
2021,10,24,12,56,981.34
2021,10,24,12,57,981.41
2021,10,24,12,58,981.44
2021,10,24,12,59,981.41
2021,10,24,13,00,981.41
2021,10,24,13,01,981.48
2021,10,24,13,02,981.55
2021,10,24,13,03,981.58
2021,10,24,13,04,981.68
2021,10,24,13,05,981.85
2021,10,24,13,06,981.88
2021,10,24,13,07,981.75
2021,10,24,13,08,981.78
2021,10,24,13,09,981.88
2021,10,24,13,10,981.85
2021,10,24,13,11,981.65
2021,10,24,13,12,981.51
2021,10,24,13,13,981.61
2021,10,24,13,14,981.65
2021,10,24,13,15,981.71
2021,10,24,13,16,981.75
2021,10,24,13,17,981.68
2021,10,24,13,18,981.82
2021,10,24,13,19,981.78
2021,10,24,13,20,981.85
2021,10,24,13,21,981.78
2021,10,24,13,22,981.58
2021,10,24,13,23,981.65
2021,10,24,13,24,981.55
2021,10,24,13,25,981.65
2021,10,24,13,26,981.58
2021,10,24,13,27,981.51
2021,10,24,13,28,981.43
2021,10,24,13,29,981.24
2021,10,24,13,30,981.10
2021,10,24,13,31,980.83
2021,10,24,13,32,980.87
2021,10,24,13,33,981.04
2021,10,24,13,34,981.07
2021,10,24,13,35,981.14
2021,10,24,13,36,981.24
2021,10,24,13,37,981.21
2021,10,24,13,38,981.24
2021,10,24,13,39,981.24
2021,10,24,13,40,981.27
2021,10,24,13,41,981.14
2021,10,24,13,42,981.16
2021,10,24,13,43,980.94
2021,10,24,13,44,980.83
2021,10,24,13,45,980.83
2021,10,24,13,46,980.77
2021,10,24,13,47,980.50
2021,10,24,13,48,980.46
2021,10,24,13,49,980.26
2021,10,24,13,50,980.33
2021,10,24,13,51,980.39
2021,10,24,13,52,980.60
2021,10,24,13,53,981.08
2021,10,24,13,54,981.45
2021,10,24,13,55,981.75
2021,10,24,13,56,982.02
2021,10,24,13,57,982.19
2021,10,24,13,58,982.19
2021,10,24,13,59,982.29
2021,10,24,14,00,982.26
2021,10,24,14,01,982.43
2021,10,24,14,02,982.46
2021,10,24,14,03,982.43
2021,10,24,14,04,982.49
2021,10,24,14,05,982.53
2021,10,24,14,06,982.46
2021,10,24,14,07,982.49
2021,10,24,14,08,982.59
2021,10,24,14,09,982.56
2021,10,24,14,10,982.56
2021,10,24,14,11,982.46
2021,10,24,14,12,982.56
2021,10,24,14,13,982.43
2021,10,24,14,14,982.32
2021,10,24,14,15,982.36
2021,10,24,14,16,982.36
2021,10,24,14,17,982.12
2021,10,24,14,18,982.05
2021,10,24,14,19,981.92
2021,10,24,14,20,981.85
2021,10,24,14,21,981.78
2021,10,24,14,22,981.82
2021,10,24,14,23,981.82
2021,10,24,14,24,981.75
2021,10,24,14,25,981.71
2021,10,24,14,26,981.71
2021,10,24,14,27,981.66
2021,10,24,14,28,981.85
2021,10,24,14,29,981.92
2021,10,24,14,30,982.02
2021,10,24,14,31,982.09
2021,10,24,14,32,982.19
2021,10,24,14,33,982.19
2021,10,24,14,34,982.19
2021,10,24,14,35,982.29
2021,10,24,14,36,982.22
2021,10,24,14,37,982.36
2021,10,24,14,38,982.32
2021,10,24,14,39,982.29
2021,10,24,14,40,982.19
2021,10,24,14,41,982.11
2021,10,24,14,42,981.99
2021,10,24,14,43,981.99
2021,10,24,14,44,981.85
2021,10,24,14,45,981.82
2021,10,24,14,46,981.88
2021,10,24,14,47,981.88
2021,10,24,14,48,981.92
2021,10,24,14,49,982.02
2021,10,24,14,50,982.12
2021,10,24,14,51,982.02
2021,10,24,14,52,982.02
2021,10,24,14,53,982.02
2021,10,24,14,54,981.95
2021,10,24,14,55,981.99
2021,10,24,14,56,981.95
2021,10,24,14,57,981.88
2021,10,24,14,58,981.99
2021,10,24,14,59,982.02
2021,10,24,15,00,982.12
2021,10,24,15,01,982.12
2021,10,24,15,02,982.26
2021,10,24,15,03,982.29
2021,10,24,15,04,982.26
2021,10,24,15,05,982.36
2021,10,24,15,06,982.29
2021,10,24,15,07,982.29
2021,10,24,15,08,982.43
2021,10,24,15,09,982.36
2021,10,24,15,10,982.39
2021,10,24,15,11,982.49
2021,10,24,15,12,982.49
2021,10,24,15,13,982.53
2021,10,24,15,14,982.49
2021,10,24,15,15,982.39
2021,10,24,15,16,982.39
2021,10,24,15,17,982.26
2021,10,24,15,18,982.26
2021,10,24,15,19,982.12
2021,10,24,15,20,982.05
2021,10,24,15,21,982.12
2021,10,24,15,22,982.12
2021,10,24,15,23,982.15
2021,10,24,15,24,982.19
2021,10,24,15,25,982.33
2021,10,24,15,26,982.53
2021,10,24,15,27,982.60
2021,10,24,15,28,982.76
2021,10,24,15,29,982.80
2021,10,24,15,30,982.90
2021,10,24,15,31,982.97
2021,10,24,15,32,983.00
2021,10,24,15,33,983.07
2021,10,24,15,34,983.00
2021,10,24,15,35,982.97
2021,10,24,15,36,982.97
2021,10,24,15,37,983.04
2021,10,24,15,38,983.04
2021,10,24,15,39,983.04
2021,10,24,15,40,983.04
2021,10,24,15,41,983.04
2021,10,24,15,42,983.00
2021,10,24,15,43,983.07
2021,10,24,15,44,983.04
2021,10,24,15,45,982.97
2021,10,24,15,46,983.03
2021,10,24,15,47,982.90
2021,10,24,15,48,982.93
2021,10,24,15,49,983.00
2021,10,24,15,50,982.97
2021,10,24,15,51,983.07
2021,10,24,15,52,983.00
2021,10,24,15,53,983.00
2021,10,24,15,54,983.00
2021,10,24,15,55,982.97
2021,10,24,15,56,983.00
2021,10,24,15,57,983.07
2021,10,24,15,58,982.97
2021,10,24,15,59,983.04
2021,10,24,16,00,982.97
2021,10,24,16,01,982.97
2021,10,24,16,02,982.90
2021,10,24,16,03,982.93
2021,10,24,16,04,982.97
2021,10,24,16,05,983.00
2021,10,24,16,06,983.04
2021,10,24,16,07,983.07
2021,10,24,16,08,983.10
2021,10,24,16,09,983.07
2021,10,24,16,10,983.04
2021,10,24,16,11,983.10
2021,10,24,16,12,982.97
2021,10,24,16,13,983.10
2021,10,24,16,14,983.07
2021,10,24,16,15,983.07
2021,10,24,16,16,983.14
2021,10,24,16,17,983.10
2021,10,24,16,18,983.17
2021,10,24,16,19,983.10
2021,10,24,16,20,983.00
2021,10,24,16,21,983.14
2021,10,24,16,22,983.10
2021,10,24,16,23,983.14
2021,10,24,16,24,983.14
2021,10,24,16,25,983.04
2021,10,24,16,26,983.04
2021,10,24,16,27,982.97
2021,10,24,16,28,983.04
2021,10,24,16,29,982.93
2021,10,24,16,30,982.90
2021,10,24,16,31,982.93
2021,10,24,16,32,982.97
2021,10,24,16,33,982.90
2021,10,24,16,34,982.90
2021,10,24,16,35,982.97
2021,10,24,16,36,982.97